Terminal Aerodrome Forecast
Issued by NWS Houston/Galveston TX

Home | Current Version | Previous Version | Text Only | Print | Product List | Glossary On
Versions: 1 2 3 4 5 6 7 8 9 10 11 12 13 14 15 16 17 18 19 20 21 22 23 24 25 26 27 28 29 30 31 32 33 34 35 36 37 38 39 40 41 42 43 44 45 46 47 48 49 50
000
FTUS44 KHGX 041725
TAFHOU
TAF
KHOU 041725Z 0418/0518 19010KT P6SM VCSH SCT040 BKN250
     FM041900 18011KT P6SM VCTS SCT040CB BKN250
     FM042100 17011KT P6SM SCT040 BKN250
     FM050200 17004KT P6SM SCT020 SCT250
     FM051400 18008KT P6SM SCT025 SCT250=

USA.gov is the U.S. government's official web portal to all federal, state and local government web resources and services.